x

9442396 - La Push, Wa (lapw1) Weather Station

10:30 - Thu 3rd Sep 2015 All times are PDT. -7 hours from GMT.

  • Wind
    3mph, 6mph gusts
  • Sea Temp 56°f
  • Ar Temp 53°f
  • Sea Pressure 1016.2mb
  • 9442396 - La Push, Wa
  • 9442396 - La Push, Wa

More Historic Weather Station data

Upgrade to MSW Pro to gain access to the past 30 days of data for over 8000 Wavebouys and Weather Stations around the globe.

Join Pro

Comparision Forecast

View Surf forecast
   
Qui 09/03 10:30 3 6 mph 1016.2mb 56f 53f
10:24 2 5 mph 1016.2mb 56f 53f
10:18 3 6 mph 1016.2mb 56f 53f
10:12 2 7 mph 1016.2mb 56f 52f
10:06 3 7 mph 1016.1mb 56f 52f
10:00 5 6 mph 1016.1mb 56f 52f
9:36 2 3 mph 1016.1mb 56f 52f
9:30 2 6 mph 1016.1mb 56f 52f
9:24 2 6 mph 1016mb 56f 52f
9:18 3 6 mph 1016mb 56f 52f
9:12 3 6 mph 1016mb 56f 52f
9:06 3 7 mph 1015.9mb 56f 52f
9:00 6 7 mph 1015.9mb 56f 52f
8:36 6 8 mph 1015.9mb 56f 51f
8:30 6 10 mph 1016mb 56f 51f
8:24 6 8 mph 1015.9mb 56f 51f
8:18 6 8 mph 1015.9mb 56f 50f
8:12 7 8 mph 1015.8mb 56f 51f
8:06 5 6 mph 1015.7mb 56f 50f
8:00 3 6 mph 1015.7mb 56f 50f
7:36 6 7 mph 1015.8mb 56f 50f
7:30 5 6 mph 1015.8mb 57f 51f
7:24 5 6 mph 1016mb 56f 50f
7:18 3 7 mph 1015.7mb 56f 50f
7:12 6 7 mph 1015.5mb 56f 50f
7:06 6 8 mph 1015.2mb 56f 50f
7:00 7 8 mph 1015.2mb 56f 50f
6:36 6 8 mph 1015.1mb 56f 50f
6:30 6 8 mph 1015.1mb 56f 50f
6:24 7 8 mph 1015mb 56f 50f
6:18 6 7 mph 1015.3mb 56f 50f
6:12 6 8 mph 1015mb 56f 50f
6:06 6 8 mph 1015.1mb 56f 50f
6:00 6 7 mph 1015.1mb 56f 50f
5:36 6 7 mph 1015mb 56f 50f
5:30 6 8 mph 1015mb 56f 50f
5:24 6 7 mph 1015.1mb 56f 50f
5:18 6 7 mph 1015mb 56f 50f
5:12 6 7 mph 1015mb 56f 50f
5:06 6 8 mph 1015mb 56f 50f
5:00 5 7 mph 1014.9mb 56f 50f
4:36 6 7 mph 1014.8mb 56f 50f
4:30 6 7 mph 1014.9mb 56f 50f
4:24 5 6 mph 1014.9mb 56f 50f
4:18 5 6 mph 1014.9mb 56f 50f
4:12 5 7 mph 1014.9mb 56f 50f
4:06 6 8 mph 1014.8mb 56f 50f
4:00 6 7 mph 1014.8mb 56f 50f
3:36 6 8 mph 1014.8mb 56f 50f
3:30 3 8 mph 1014.8mb 56f 50f
3:24 6 7 mph 1014.7mb 56f 50f
3:18 5 7 mph 1014.7mb 56f 50f
3:12 6 7 mph 1014.6mb 56f 50f
3:06 6 8 mph 1014.6mb 56f 50f
3:00 6 8 mph 1014.5mb 56f 50f
2:36 6 8 mph 1014.6mb 56f 50f
2:30 7 8 mph 1014.6mb 56f 51f
2:24 5 7 mph 1014.7mb 56f 51f
2:18 6 8 mph 1014.6mb 56f 51f
2:12 6 8 mph 1014.5mb 56f 51f
2:06 6 8 mph 1014.5mb 56f 51f
2:00 6 7 mph 1014.5mb 56f 51f
1:36 5 6 mph 1014.5mb 56f 51f
1:30 5 6 mph 1014.5mb 56f 51f
1:24 3
mph
1014.5mb 56f 51f
1:18 3 6 mph 1014.5mb 56f 51f
1:12 5 7 mph 1014.5mb 56f 51f
1:06 6 7 mph 1014.5mb 56f 51f
1:00 5 6 mph 1014.5mb 56f 51f
12:36 3 5 mph 1014.5mb 57f 52f
12:30 3 5 mph 1014.5mb 57f 52f
12:24 3 5 mph 1014.5mb 57f 52f
12:18 2 5 mph 1014.6mb 58f 52f
12:12 6
mph
1014.6mb 58f 52f
12:06 2 5 mph 1014.7mb 58f 52f
12:00 6 7 mph 1014.4mb 58f 52f
Qua 09/02 11:36 6 7 mph 1014.4mb 58f 52f
11:30 5 6 mph 1014.5mb 58f 52f
11:24 3 5 mph 1014.5mb 58f 52f
11:18 2 3 mph 1014.5mb 58f 53f
11:12 3 5 mph 1014.5mb 58f 53f
11:06 2 3 mph 1014.6mb 58f 53f
11:00 2
mph
1014.5mb 58f 53f
10:36 3
mph
1014.5mb 58f 54f
10:30 5 6 mph 1014.5mb 59f 54f
10:24 5 6 mph 1014.5mb 59f 54f
10:18 1 8 mph 1014.7mb 59f 54f
10:12 5 8 mph 1014.7mb 59f 53f
10:06 3 6 mph 1014.4mb 58f 53f
10:00 3 5 mph 1014.4mb 58f 53f
9:36 5 6 mph 1014.4mb 58f 54f
9:30 5
mph
1014.4mb 58f 54f
9:24 2 3 mph 1014.3mb 58f 55f
9:18 2 3 mph 1014.3mb 58f 54f
9:12 1 3 mph 1014.3mb 58f 55f
9:06 2
mph
1014.3mb 58f 55f
9:00 1 3 mph 1014.2mb 58f 55f
8:36 1 3 mph 1014mb 57f 58f
8:30 2 6 mph 1013.9mb 57f 58f
8:24 5 6 mph 1013.9mb 57f 58f
8:18 5 6 mph 1013.9mb 57f 58f
8:12 3
mph
1013.9mb 57f 58f
8:06 3 5 mph 1013.9mb 56f 58f
8:00 2 6 mph 1013.9mb 56f 58f
7:36 5 7 mph 1013.6mb 56f 59f
7:30 6 9 mph 1013.5mb 56f 59f
7:24 5 8 mph 1013.6mb 55f 59f
7:18 5 6 mph 1013.6mb 55f 59f
7:12 5 6 mph 1013.7mb 55f 59f
7:06 6 8 mph 1013.7mb 55f 59f
7:00 6 8 mph 1013.7mb 55f 59f
6:36 5 8 mph 1013.7mb 55f 59f
6:30 5 6 mph 1013.6mb 55f 59f
6:24 5 6 mph 1013.6mb 55f 59f
6:18 5 6 mph 1013.5mb 55f 59f
6:12 6 7 mph 1013.5mb 55f 59f
6:06 5 7 mph 1013.4mb 55f 59f
6:00 5 7 mph 1013.5mb 55f 59f
5:36 5 7 mph 1013.5mb 55f 58f
5:30 6 7 mph 1013.5mb 55f 58f
5:24 3 6 mph 1013.5mb 55f 58f
5:18 3 6 mph 1013.5mb 55f 58f
5:12 6 8 mph 1013.5mb 55f 59f
5:06 5 7 mph 1013.5mb 55f 59f
5:00 6 8 mph 1013.5mb 55f 59f
4:36 7 9 mph 1013.4mb 55f 58f
4:30 7 9 mph 1013.3mb 55f 59f
4:24 6 8 mph 1013.3mb 55f 59f
4:18 7 9 mph 1013.3mb 55f 59f
4:12 7 9 mph 1013.3mb 55f 58f
4:06 7 9 mph 1013.2mb 55f 59f
4:00 7 10 mph 1013.1mb 55f 59f
3:36 8 9 mph 1012.9mb 55f 59f
3:30 7 8 mph 1012.9mb 55f 59f
3:24 7 9 mph 1012.9mb 55f 59f
3:18 7 8 mph 1012.9mb 55f 59f
3:12 6 7 mph 1012.9mb 55f 58f
3:06 7 9 mph 1012.8mb 55f 58f
3:00 5 7 mph 1012.8mb 55f 59f
2:36 5 6 mph - - -
2:30 6 7 mph 1012.5mb 55f -
2:24 1 5 mph 1012.4mb 55f -
2:18 3 5 mph 1012.5mb 55f -
2:12 3 5 mph 1012.5mb 55f -
2:06 3 7 mph 1012.5mb 55f -
2:00 6 7 mph 1012.5mb 55f -
1:36 7 9 mph 1012.3mb 55f 57f
1:30 5 7 mph 1012.3mb 55f 56f
1:24 5 7 mph 1012.3mb 55f 56f
1:18 3 10 mph 1012.4mb 56f 56f
1:12 9 13 mph 1012.6mb 55f 56f
1:06 11 14 mph 1012.6mb 55f 60f
1:00 10 13 mph 1012.3mb 55f 60f
12:36 9 13 mph 1012.1mb 55f 60f
12:30 9 13 mph 1012mb 55f 60f
12:24 10 13 mph 1012.1mb 55f 60f
12:18 9 11 mph 1012.1mb 55f 59f
12:12 8 11 mph 1012.1mb 55f 60f
12:06 7 10 mph 1012.1mb 55f 59f
12:00 8 10 mph 1012mb 55f 59f
11:36 10 14 mph 1012mb 55f 59f
11:30 10 14 mph 1012.1mb 55f 59f
11:24 9 14 mph 1012.1mb 55f 58f
11:18 9 14 mph 1012mb 55f 58f
11:12 9 13 mph 1012mb 55f 58f
11:06 9 15 mph 1012mb 55f 58f
11:00 13 16 mph 1011.9mb 55f 58f
10:54 7 14 mph 1011.8mb 56f 58f
10:48 8 14 mph 1011.8mb 56f 58f
10:36 11 18 mph 1011.5mb 56f 58f
10:30 7 14 mph 1011.5mb 56f 58f
10:24 9 14 mph 1011.4mb 56f 58f
10:18 8 11 mph 1011.4mb 56f 58f
10:12 8 11 mph 1011.4mb 56f 58f
10:06 9 13 mph 1011.4mb 56f 58f
10:00 9 14 mph 1011.4mb 56f 58f
9:54 10 16 mph 1011.4mb 56f 58f
9:48 8 14 mph 1011.4mb 56f 58f
9:36 10 13 mph 1011.3mb 56f 58f
9:30 8 11 mph 1011.2mb 56f 58f
9:24 7 10 mph 1011.1mb 56f 57f
9:18 6 13 mph 1011.2mb 55f 57f
9:12 8 14 mph 1011.2mb 55f 57f
9:06 8 11 mph 1011.2mb 55f 57f
9:00 8 14 mph 1011.1mb 55f 57f
8:54 7 10 mph 1011.1mb 55f 56f
8:48 7 13 mph 1011mb 55f 56f
8:36 6 10 mph 1011mb 55f 55f
8:30 5 7 mph 1010.9mb 56f 55f
8:24 3 7 mph 1010.9mb 56f 54f
8:18 2 5 mph 1010.9mb 56f 54f
8:12 3 7 mph 1010.9mb 56f 53f
8:06 2 6 mph 1010.9mb 56f 53f
8:00 5 9 mph 1010.8mb 56f 53f
7:54 6 7 mph 1010.8mb 56f 53f
7:48 6
mph
1010.8mb 56f 52f
7:36 1 6 mph 1010.7mb 56f 53f
7:30 5 8 mph 1010.6mb 56f 52f
7:24 6
mph
1010.6mb 56f 52f
7:18 3 6 mph 1010.5mb 56f 52f
7:12 2 6 mph 1010.5mb 56f 51f
7:06 5 6 mph 1010.5mb 56f 51f
7:00 3 5 mph 1010.4mb 56f 51f
6:54 3 7 mph 1010.4mb 56f 51f
6:48 5 7 mph 1010.3mb 56f 52f
6:36 2 3 mph 1010.2mb 56f 53f
6:30 2 5 mph 1010.1mb 56f 53f
6:24 1 8 mph 1010.1mb 56f 57f
6:18 6 9 mph 1010.1mb 56f 56f
6:12 6 9 mph 1010mb 56f 55f
6:06 7 9 mph 1009.9mb 56f 55f
6:00 8 13 mph 1009.8mb 56f 55f
5:54 8 11 mph 1009.8mb 56f 54f
5:48 6 9 mph 1009.8mb 56f 53f
5:36 3 6 mph 1009.8mb 56f 50f
5:30 5 7 mph 1009.7mb 56f 50f
5:24 5 7 mph 1009.8mb 56f 50f
5:18 6 7 mph 1009.7mb 56f 50f
5:12 6 7 mph 1009.7mb 56f 50f
5:06 6 7 mph 1009.7mb 56f 50f
5:00 6 7 mph 1009.7mb 56f 50f
4:54 6 7 mph 1009.7mb 56f 50f
4:48 6 7 mph 1009.7mb 56f 50f
4:36 7 8 mph 1009.7mb 56f 50f
4:30 6 7 mph 1009.6mb 56f 50f
4:24 5 8 mph 1009.6mb 56f 50f
4:18 6 7 mph 1009.6mb 56f 50f
4:12 6 7 mph 1009.6mb 56f 50f
4:06 6 7 mph 1009.6mb 56f 50f
4:00 6 7 mph 1009.5mb 56f 50f
3:54 6 7 mph 1009.6mb 56f 50f
3:48 5 7 mph 1009.5mb 56f 50f
3:36 5 7 mph 1009.5mb 56f 50f
3:30 6 7 mph 1009.4mb 56f 51f
3:24 5 6 mph 1009.4mb 56f 51f
3:18 5 6 mph 1009.4mb 56f 51f
3:12 5 6 mph 1009.3mb 56f 51f
3:06 6
mph
1009.4mb 56f 51f
3:00 5 7 mph 1009.3mb 56f 51f
2:54 5
mph
1009.2mb 56f 51f
2:48 3 5 mph 1009.2mb 56f 51f
2:36 3 5 mph 1009.2mb 56f 51f
2:30 3 5 mph 1009.2mb 56f 51f
2:24 5 6 mph 1009.2mb 56f 52f
2:18 3 5 mph 1009.3mb 56f 52f
2:12 5 6 mph 1009.3mb 56f 52f
2:06 3 5 mph 1009.3mb 56f 52f
2:00 3 5 mph 1009.3mb 56f 52f
1:54 3 5 mph 1009.2mb 56f 52f
1:48 5
mph
1009.2mb 56f 52f
1:36 2
mph
1009.1mb 56f 53f
1:30  -  2 mph 1009.1mb 56f 53f
1:24 1 3 mph 1009.2mb 56f 53f
1:18 2 3 mph 1009.2mb 56f 53f
1:12 2 3 mph 1009.2mb 56f 53f
1:06 2 3 mph 1009.2mb 56f 54f
1:00 2 5 mph 1009.2mb 56f 53f
12:54 2
mph
1009.1mb 56f 54f
12:48 2
mph
1009.1mb 56f 54f
12:36  -  2 mph 1009mb 56f 55f
12:30 2
mph
1009mb 56f 55f
12:24 2 3 mph 1009mb 56f 55f
12:18 3 11 mph 1009mb 56f 56f
12:12 11 14 mph 1009.1mb 56f 56f
12:06 9 11 mph 1009.1mb 56f 56f
12:00 8 9 mph 1008.9mb 56f 57f
Ter 09/01 11:54 2 8 mph 1008.8mb 56f 57f
11:48 3 6 mph 1008.8mb 56f 56f
11:36  -  2 mph 1008.9mb 56f 56f
11:30  -  2 mph 1008.9mb 57f 56f
11:24  -  2 mph 1008.8mb 57f 56f
11:18  -  2 mph 1008.8mb 57f 56f
11:12  -  1 mph 1008.8mb 57f 56f
11:06  -  2 mph 1008.8mb 57f 56f
11:00 2 6 mph 1008.8mb 57f 57f
10:54 5 7 mph 1008.7mb 57f 57f
10:48 5 6 mph 1008.7mb 57f 57f
10:36 3 6 mph 1008.8mb 57f 57f
10:30 5 7 mph 1008.8mb 57f 58f
10:24 3 10 mph 1008.8mb 57f 57f
10:18 5 6 mph 1008.8mb 57f 58f
10:12 5 7 mph 1008.8mb 57f 58f
10:06 5 7 mph 1008.8mb 57f 58f
10:00 6 10 mph 1008.8mb 57f 58f
9:54 6 8 mph 1008.9mb 57f 58f
9:48 7 10 mph 1008.8mb 57f 58f
9:36 6 9 mph 1008.8mb 57f 57f
9:30 6 8 mph 1008.7mb 57f 58f
9:24 6 8 mph 1008.7mb 57f 58f
9:18 8 13 mph 1008.7mb 57f 57f
9:12 7 9 mph 1008.7mb 57f 57f
9:06 8 9 mph 1008.6mb 57f 58f
9:00 7 11 mph 1008.6mb 57f 58f
8:54 7 11 mph 1008.5mb 57f 57f
8:48 9 15 mph 1008.6mb 57f 57f
8:36 10 15 mph 1008.5mb 57f 57f
8:30 10 15 mph 1008.4mb 57f 58f
8:24 9 13 mph 1008.3mb 57f 57f
8:18 6 10 mph 1008.3mb 57f 57f
8:12 5 7 mph 1008.3mb 57f 57f
8:06 5 11 mph 1008.2mb 57f 57f
8:00 5 9 mph 1008.3mb 57f 58f
7:54 5 11 mph 1008.4mb 57f 58f
7:48 7 10 mph 1008.4mb 57f 57f
7:36 5 8 mph 1008.4mb 57f 58f
7:30 7 9 mph 1008.4mb 57f 58f
7:24 8 9 mph 1008.4mb 57f 58f
7:18 7 10 mph 1008.4mb 57f 58f
7:12 7 10 mph 1008.6mb 57f 57f
7:06 8 11 mph 1008.6mb 56f 57f
7:00 8 11 mph 1008.6mb 56f 57f
6:54 7 9 mph 1008.6mb 56f 57f
6:48 8 9 mph 1008.5mb 56f 57f
6:36 8 11 mph 1008.6mb 56f 57f
6:30 8 11 mph 1008.5mb 56f 57f
6:24 8 11 mph 1008.5mb 56f 57f
6:18 7 13 mph 1008.5mb 56f 57f
6:12 11 15 mph 1008.6mb 56f 58f
6:06 9 14 mph 1008.5mb 55f 58f
6:00 8 14 mph 1008.5mb 55f 58f
5:36 8 14 mph 1008.5mb 55f 58f
5:30 8 14 mph 1008.5mb 55f 58f
5:24 8 11 mph 1008.5mb 55f 58f
5:18 9 11 mph 1008.5mb 55f 58f
5:12 7 15 mph 1008.6mb 55f 58f
5:06 7 14 mph 1008.5mb 55f 58f
5:00 10 16 mph 1008.7mb 55f 58f
4:54 7 14 mph 1008.7mb 55f 58f
4:48 10 15 mph 1008.6mb 55f 58f
4:36 8 13 mph 1008.7mb 55f 58f
4:30 9 14 mph 1008.8mb 55f 59f
4:24 11 16 mph 1008.8mb 55f 58f
4:18 10 14 mph 1008.9mb 55f 58f
4:12 9 15 mph 1008.9mb 55f 58f
4:06 9 14 mph 1009mb 55f 58f
4:00 9 15 mph 1009.2mb 55f 58f
3:54 8 13 mph 1009.1mb 55f 58f
3:48 10 14 mph 1009.1mb 55f 58f
3:36 10 14 mph 1009.4mb 55f 58f
3:30 13 18 mph 1009.3mb 55f 58f
3:24 11 15 mph 1009.4mb 55f 59f
3:18 11 17 mph 1009.5mb 55f 59f
3:12 13 17 mph 1009.5mb 55f 60f
3:06 11 15 mph 1009.5mb 56f 60f
3:00 10 14 mph 1009.5mb 55f 60f
2:54 10 17 mph 1009.6mb 55f 60f
2:48 9 15 mph 1009.6mb 55f 60f
2:36 10 14 mph 1009.6mb 55f 60f
2:30 11 15 mph 1009.6mb 55f 60f
2:24 10 16 mph 1009.7mb 55f 60f
2:18 9 15 mph 1009.7mb 54f 60f
2:12 10 14 mph 1009.7mb 54f 60f
2:06 11 15 mph 1009.7mb 54f 60f
2:00 10 14 mph 1009.7mb 55f 60f
1:54 13 15 mph 1009.8mb 54f 60f
1:48 10 13 mph 1009.7mb 54f 60f
1:36 11 15 mph 1009.8mb 54f 60f
1:30 11 14 mph 1009.9mb 55f 60f
1:24 13 15 mph 1010mb 55f 60f
1:18 13 16 mph 1010mb 55f 60f
1:12 11 15 mph 1009.9mb 55f 60f
1:06 11 15 mph 1010mb 55f 60f
1:00 13 16 mph 1010.1mb 55f 60f
12:54 9 14 mph 1010.1mb 55f 61f
12:48 10 15 mph 1010.1mb 55f 61f
12:36 11 14 mph 1010.1mb 55f 61f
12:30 10 15 mph 1010.2mb 55f 60f
12:24 11 14 mph 1010.2mb 55f 60f
12:18 10 14 mph 1010.2mb 55f 61f
12:12 10 13 mph 1010.2mb 55f 60f
12:06 9 13 mph 1010.2mb 55f 61f
12:00 9 13 mph 1010.2mb 55f 60f
11:54 9 11 mph 1010.2mb 56f 60f
11:48 9 13 mph 1010.3mb 56f 60f
11:36 11 15 mph 1010.4mb 56f 60f
11:30 10 14 mph 1010.4mb 57f 60f
11:24 10 14 mph 1010.4mb 57f 60f
11:18 10 14 mph 1010.4mb 57f 60f
11:12 13 15 mph 1010.4mb 57f 60f
11:06 9 14 mph 1010.3mb 57f 60f
11:00 11 15 mph 1010.3mb 57f 60f
10:54 11 14 mph 1010.3mb 57f 60f
10:48 10 15 mph 1010.3mb 57f 60f
10:36 8 14 mph 1010.3mb 57f 60f
10:30 9 11 mph 1010.3mb 57f 60f
10:24 8 14 mph 1010.2mb 57f 59f
10:18 8 13 mph 1010mb 57f 59f
10:12 8 13 mph 1009.9mb 57f 59f
10:06 7 13 mph 1010mb 57f 59f
10:00 8 10 mph 1009.9mb 57f 59f
9:54 8 9 mph 1010mb 57f 59f
9:48 5 7 mph 1010mb 57f 59f
9:36 5 6 mph 1009.9mb 57f 58f
9:30 1 3 mph 1010mb 57f 58f
9:24 1 3 mph 1009.9mb 57f 58f
9:18 1 2 mph 1009.9mb 57f 57f
9:12 1 2 mph 1010mb 57f 57f
9:06 1 3 mph 1010mb 57f 57f
9:00  -  1 mph 1010.1mb 57f 56f
8:54 1 3 mph 1010.2mb 58f 56f
8:48 3 7 mph 1010.2mb 58f 56f
8:36 8 13 mph 1010.3mb 58f 57f
8:30 8 15 mph 1010.3mb 58f 58f
8:24 8 9 mph 1010.3mb 58f 58f
8:18 6 8 mph 1010.3mb 58f 58f
8:12 6 8 mph 1010.2mb 58f 58f
8:06 6 8 mph 1010.2mb 58f 58f
8:00 6 7 mph 1010.2mb 58f 58f
7:54 5 7 mph 1010.3mb 58f 58f
7:48 5 7 mph 1010.3mb 58f 58f
7:36 3 5 mph 1010.3mb 58f 57f
7:30 1 2 mph 1010.3mb 58f 57f
7:24  -  1 mph 1010.2mb 58f 57f
7:18  -  1 mph 1010.3mb 58f 57f
7:12  -  1 mph 1010.2mb 58f 57f
7:06  -  1 mph 1010.2mb 58f 57f
7:00  -  2 mph 1010.3mb 58f 57f
6:36 3 5 mph 1010.2mb 57f -
6:30 2 5 mph 1010.2mb 57f -
6:24 3 5 mph 1010.2mb 57f -
6:18 2
mph
1010.3mb 57f -
6:12 3 5 mph 1010.4mb 56f -
6:06 3 5 mph 1010.4mb 56f -
6:00 2 3 mph 1010.5mb 56f -
5:54 2 3 mph 1010.5mb 56f -
5:48 2 3 mph 1010.5mb 56f -
5:36  -  2 mph 1010.6mb 55f 57f
5:30 2 3 mph 1010.7mb 55f 58f
5:24 2
mph
1010.8mb 55f 57f
5:18  -  1 mph 1011mb 55f 58f
5:12  -  mph 1011mb 55f 58f
5:06  -  2 mph 1011mb 55f 58f
5:00 2
mph
1011mb 55f 58f
4:54 1 2 mph 1011mb 55f 58f
4:48 1 2 mph 1010.9mb 55f 58f
4:36 1 2 mph 1011mb 55f 58f
4:30 1 2 mph 1011mb 55f 58f
4:24  -  2 mph 1011.2mb 55f 58f
4:18  -  3 mph 1011.2mb 55f 58f
4:12 2 3 mph 1011.3mb 55f 58f
4:06 2 3 mph 1011.3mb 55f 58f
4:00 1 2 mph 1011.3mb 55f 58f
3:54  -  1 mph 1011.4mb 55f 58f
3:48 1
mph
1011.3mb 55f 58f
3:36 1 2 mph 1011.3mb 55f 58f
3:30  -  1 mph 1011.3mb 55f 58f
3:24  -  2 mph 1011.3mb 55f 58f
3:18 1 2 mph 1011.3mb 55f 58f
3:12 1
mph
1011.3mb 55f 58f
3:06  -  1 mph 1011.3mb 55f 58f
3:00  -  2 mph 1011.2mb 55f 58f
2:54  -  2 mph 1011.2mb 55f 58f
2:48 2 3 mph 1011.1mb 55f 58f
2:36  -  3 mph - 55f 59f
2:30 2 5 mph - 55f 59f
2:24 5 6 mph - 55f 59f
2:18 5 8 mph - 55f 59f
2:12 6 7 mph - 55f 59f
2:06 5 7 mph - 55f 59f
2:00 5 8 mph - 55f 59f
1:54 6 8 mph - 55f 59f
1:48 6 9 mph - 55f 59f
1:36 6 10 mph 1010.9mb 55f 58f
1:30 8 11 mph 1010.9mb 55f 58f
1:24 8 10 mph 1010.8mb 55f 59f
1:18 8 10 mph 1010.9mb 55f 59f
1:12 6 8 mph 1010.8mb 55f 60f
1:06 6 10 mph 1010.7mb 55f 59f
1:00 8 13 mph 1010.8mb 55f 59f
12:54 8 11 mph 1010.7mb 55f 60f
12:48 11 15 mph 1010.7mb 55f 59f
12:36 10 16 mph 1010.7mb 55f 60f
12:30 13 20 mph 1010.7mb 55f 59f
12:24 10 18 mph 1010.7mb 55f 59f
12:18 13 18 mph 1010.7mb 55f 59f
12:12 9 15 mph 1010.7mb 55f 59f
12:06 10 16 mph 1010.8mb 55f 59f
12:00 13 17 mph 1010.8mb 55f 58f
Seg 08/31 11:54 13 18 mph 1010.7mb 55f 59f
11:48 13 18 mph 1010.6mb 55f 58f
11:36 15 20 mph 1010.6mb 55f 58f
11:30 15 18 mph 1010.6mb 56f 58f
11:24 14 21 mph 1010.6mb 56f 59f
11:18 18 23 mph 1010.6mb 56f 59f
11:12 14 23 mph 1010.5mb 56f 59f
11:06 11 21 mph 1010.6mb 56f 59f
11:00 11 22 mph 1010.6mb 57f 59f
10:54 15 22 mph 1010.6mb 57f 59f
10:48 14 20 mph 1010.7mb 58f 59f
10:36 11 20 mph 1010.8mb 58f 59f
10:30 13 22 mph 1010.8mb 58f 60f
10:24 13 22 mph 1010.8mb 58f 60f
10:18 11 18 mph 1010.9mb 58f 60f
10:12 10 18 mph 1010.8mb 58f 60f
10:06 14 21 mph 1010.9mb 58f 60f
10:00 11 18 mph 1010.9mb 58f 60f
9:54 11 20 mph 1010.9mb 58f 60f
9:48 13 22 mph 1011mb 58f 60f
9:36 14 20 mph 1010.9mb 58f 61f
9:30 16 24 mph 1010.9mb 58f 61f
9:24 17 23 mph 1010.9mb 58f 60f
9:18 13 21 mph 1011mb 58f 60f
9:12 10 20 mph 1011.1mb 58f 60f
9:06 13 20 mph 1011mb 58f 60f
9:00 9 21 mph 1011.1mb 58f 60f
8:54 10 15 mph 1011.1mb 58f 60f
8:48 10 18 mph 1011.2mb 58f 60f
8:36 10 14 mph 1011.2mb 58f 60f
8:30 9 17 mph 1011.1mb 58f 59f
8:24 13 16 mph 1011.1mb 58f 59f
8:18 13 15 mph 1011.1mb 58f 59f
8:12 8 13 mph 1011.2mb 58f 58f
8:06 13 15 mph 1011.2mb 58f 58f
8:00 11 16 mph 1011.2mb 58f 58f
7:54 10 15 mph 1011.2mb 58f 59f
7:48 10 15 mph 1011.2mb 58f 58f
7:36 13 20 mph 1011.4mb 58f 58f
7:30 15 23 mph 1011.4mb 58f 59f
7:24 16 23 mph 1011.5mb 58f 59f
7:18 10 16 mph 1011.6mb 58f 60f
7:12 14 17 mph 1011.6mb 57f 59f
7:06 14 18 mph 1011.6mb 57f 60f
7:00 13 21 mph 1011.6mb 57f 60f
6:54 13 20 mph 1011.5mb 57f 60f
6:48 15 22 mph 1011.5mb 56f 60f
6:36 14 21 mph 1011.7mb 56f 60f
6:30 13 18 mph 1011.6mb 55f 60f
6:24 9 22 mph 1011.7mb 55f 60f
6:18 13 20 mph 1011.7mb 55f 60f
6:12 14 22 mph 1011.8mb 55f 60f
6:06 10 16 mph 1011.9mb 55f 60f
6:00 9 16 mph 1011.9mb 55f 60f
5:54 9 15 mph 1012.1mb 55f 60f
5:48 10 15 mph 1012mb 55f 60f
5:36 14 20 mph 1012.1mb 55f 59f
5:30 15 20 mph 1012.1mb 54f 59f
5:24 14 18 mph 1012.2mb 54f 59f
5:18 14 20 mph 1012.2mb 54f 60f
5:12 13 20 mph 1012.2mb 54f 60f
5:06 13 21 mph 1012.2mb 55f 60f
5:00 14 18 mph 1012.2mb 55f 60f
4:54 13 18 mph 1012.2mb 55f 60f
4:48 13 17 mph 1012.2mb 54f 59f
4:36  -  mph 1012.3mb 54f 60f
3:36 11 15 mph 1012.6mb 54f 59f
3:30 11 18 mph 1012.6mb 54f 60f
3:24 10 17 mph 1012.6mb 54f 60f
3:18 13 17 mph 1012.7mb 54f 60f
3:12 10 17 mph 1012.6mb 54f 60f
3:06 10 16 mph 1012.7mb 54f 60f
3:00 9 17 mph 1012.7mb 54f 60f
2:54 10 20 mph 1012.9mb 54f 60f
2:48 14 23 mph 1013mb 54f 60f
2:36 15 20 mph 1012.8mb 54f 59f
2:30 13 18 mph 1012.9mb 54f 59f
2:24 13 17 mph 1013.1mb 54f 59f
2:18 11 18 mph 1013.1mb 54f 59f
2:12 14 20 mph 1013.2mb 54f 59f
2:06 13 22 mph 1013mb 54f 59f
2:00 14 18 mph 1013.1mb 54f 59f
1:54 13 22 mph 1013mb 54f 59f
1:48 10 18 mph 1013mb 54f 59f
1:36 13 18 mph 1013.1mb 55f 60f
1:30 11 22 mph 1013mb 54f 59f
1:24 11 20 mph 1013mb 54f 59f
1:18 11 18 mph 1013mb 54f 59f
1:12 13 21 mph 1013mb 54f 60f
1:06 16 20 mph 1013mb 55f 59f
1:00 13 18 mph 1013.1mb 55f 59f
12:54 13 18 mph 1013.1mb 55f 59f
12:48 14 18 mph 1013.1mb 55f 58f
12:36 13 17 mph 1013.1mb 55f 58f
12:30 13 18 mph 1013.1mb 55f 59f
12:24 15 20 mph 1013mb 55f 59f
12:18 14 20 mph 1013mb 55f 59f
12:12 14 17 mph 1013mb 55f 59f
12:06 16 20 mph 1012.9mb 55f 59f
12:00 17 22 mph 1012.9mb 55f 59f
11:54 15 22 mph 1012.9mb 55f 59f
11:48 15 20 mph 1012.9mb 55f 59f
11:36 15 21 mph 1012.9mb 55f 59f
11:30 16 20 mph 1012.8mb 55f 59f
11:24 14 22 mph 1012.9mb 55f 59f
11:18 14 20 mph 1012.9mb 55f 59f
11:12 14 17 mph 1012.9mb 55f 59f
11:06 13 18 mph 1012.9mb 55f 59f
11:00 17 22 mph 1012.9mb 56f 59f
10:54 16 23 mph 1012.9mb 56f 58f
10:48 16 21 mph 1013mb 56f 58f
10:36 15 21 mph - 56f 59f
10:30 14 22 mph - 56f 59f
10:24 14 21 mph - 56f 58f
10:18 13 18 mph - 56f 59f
10:12 14 21 mph - 56f 58f
10:06 13 18 mph - 56f 59f
10:00 14 18 mph - 56f 59f
9:54 13 20 mph - 57f 58f
9:48 14 17 mph - 57f 59f
9:36 16 18 mph 1012.6mb 58f 58f
9:30 14 20 mph 1012.5mb 58f 58f
9:24 11 18 mph 1012.5mb 58f 59f
9:18 14 17 mph 1012.5mb 59f 59f
9:12 14 20 mph 1012.4mb 59f 59f
9:06 14 20 mph 1012.4mb 59f 59f
9:00 14 20 mph 1012.4mb 59f 58f
8:54 15 21 mph 1012.4mb 59f 59f
8:48 16 22 mph 1012.4mb 59f 58f
7:54 15 22 mph 1012.4mb 59f 58f
7:48 11 22 mph 1012.3mb 59f 58f
6:54 14 20 mph 1012.1mb 58f 59f
6:48 10 17 mph 1012.1mb 57f 59f
5:54 11 15 mph 1012mb 55f 59f
5:48 11 15 mph 1012mb 55f 59f
4:54 15 20 mph 1012.1mb 55f 58f
4:48 11 16 mph 1012.1mb 54f 58f
3:54  -  mph 1011.9mb 55f 59f
3:48  -  mph 1011.9mb 55f 58f
2:54 15 20 mph 1011.9mb 54f 58f
2:48 14 20 mph 1012mb 54f 58f